Hourly Data Report for May 08, 2021

TOBERMORY RCS
ONTARIO
Current Station Operator: ECCC - MSC

45°14'00.000" N
81°38'00.000" W
213.50 m
6128330
71767
TTR

Download Data

Hourly Data (May 2021)
Hourly Data Report for May 8, 2021
TIME
LST
Temp Definition
°C
Dew Point Definition
°C
Rel Hum Definition
%
Precip. Amount Definition
mm

Wind Dir Definition
10's deg

Wind Spd Definition
km/h
Visibility Definition
km
Stn Press Definition
kPa
Hmdx Definition


Wind Chill Definition


Weather Definition


00:00 4.2 2.2 87 0.1 36 10   98.87     LegendNANA
01:00 3.8 2.1 89 1.6 36 8   98.85     LegendNANA
02:00 3.5 2.1 90 1.1 36 7   98.85     LegendNANA
03:00 3.6 2.3 91 2.0 28 9   98.82     LegendNANA
04:00 3.5 2.6 94 0.0 29 9   98.84     LegendNANA
05:00 3.5 2.7 94 0.1 30 5   98.88     LegendNANA
06:00 3.9 2.9 93 0.0 28 7   98.95     LegendNANA
07:00 3.9 2.8 93 0.0 30 9   98.98     LegendNANA
08:00 4.2 3.0 92 0.0 33 8   99.01     LegendNANA
09:00 4.8 2.8 87 0.0 33 9   99.04     LegendNANA
10:00 5.4 3.2 85 0.0 32 11   99.06     LegendNANA
11:00 6.2 2.5 77 0.0 32 10   99.08     LegendNANA
12:00 6.6 2.5 75 0.0 30 11   99.08     LegendNANA
13:00 7.2 3.0 75 0.0 29 12   99.10     LegendNANA
14:00 7.4 3.1 74 0.0 29 12   99.13     LegendNANA
15:00 8.3 2.3 66 0.0 29 16   99.12     LegendNANA
16:00 7.5 2.7 72 0.0 30 16   99.14     LegendNANA
17:00 7.3 1.1 64 0.0 30 16   99.12     LegendNANA
18:00 8.1 0.6 59 0.0 31 10   99.11     LegendNANA
19:00 6.6 0.4 64 0.0 29 9   99.14     LegendNANA
20:00 4.1 0.6 78 0.0 28 8   99.15     LegendNANA
21:00 2.2 0.6 89 0.0 23 2   99.17     LegendNANA
22:00 1.1 0.3 95 0.0 22 3   99.19     LegendNANA
23:00 0.3 -0.5 94 0.0 24 6   99.19     LegendNANA

Notes on Data Quality.

Legend

  • E = Estimated
  • M = Missing
  • NA = Not Available*
  • [empty] = Indicates an unobserved value
Date modified: